TimeEST,TemperatureF,Dew PointF,Humidity,Sea Level PressureIn,VisibilityMPH,Wind Direction,Wind SpeedMPH,Gust SpeedMPH,PrecipitationIn,Events,Conditions,WindDirDegrees,DateUTC
12:54 AM,39.0,33.1,79,30.22,10.0,Calm,Calm,-,N/A,,Overcast,0,2011-12-05 05:54:00
1:54 AM,39.0,34.0,82,30.21,10.0,Calm,Calm,-,N/A,,Overcast,0,2011-12-05 06:54:00
2:12 AM,37.4,33.8,87,30.20,10.0,West,4.6,-,N/A,,Overcast,280,2011-12-05 07:12:00
2:54 AM,37.9,34.0,86,30.23,10.0,WSW,3.5,-,N/A,,Overcast,250,2011-12-05 07:54:00
3:39 AM,37.4,33.8,87,30.20,10.0,Calm,Calm,-,N/A,,Mostly Cloudy,0,2011-12-05 08:39:00
3:54 AM,37.9,34.0,86,30.22,10.0,West,3.5,-,N/A,,Overcast,270,2011-12-05 08:54:00
4:54 AM,39.0,35.1,86,30.22,10.0,NNW,3.5,-,N/A,,Overcast,330,2011-12-05 09:54:00
5:07 AM,39.2,35.6,87,30.20,10.0,NW,4.6,-,N/A,,Overcast,320,2011-12-05 10:07:00
5:18 AM,39.2,35.6,87,30.21,10.0,NW,3.5,-,N/A,,Overcast,310,2011-12-05 10:18:00
5:25 AM,39.2,35.6,87,30.22,10.0,NW,5.8,-,N/A,,Overcast,310,2011-12-05 10:25:00
5:34 AM,39.2,35.6,87,30.22,10.0,WNW,3.5,-,N/A,,Overcast,300,2011-12-05 10:34:00
5:54 AM,39.2,35.6,87,30.21,10.0,Calm,Calm,-,N/A,,Overcast,0,2011-12-05 10:54:00
6:54 AM,39.0,36.0,89,30.27,10.0,Calm,Calm,-,N/A,,Overcast,0,2011-12-05 11:54:00
7:09 AM,39.2,35.6,87,30.24,10.0,Calm,Calm,-,N/A,,Overcast,0,2011-12-05 12:09:00
7:54 AM,39.9,35.1,83,30.26,10.0,NNE,3.5,-,N/A,,Overcast,30,2011-12-05 12:54:00
8:54 AM,39.0,35.1,86,30.24,8.0,NE,4.6,-,N/A,,Overcast,40,2011-12-05 13:54:00
9:54 AM,39.0,35.1,86,30.28,10.0,North,6.9,-,N/A,,Overcast,10,2011-12-05 14:54:00
10:10 AM,39.2,35.6,87,30.25,10.0,NNE,5.8,-,N/A,,Overcast,30,2011-12-05 15:10:00
10:54 AM,39.9,35.1,83,30.26,10.0,NNE,6.9,-,N/A,,Overcast,30,2011-12-05 15:54:00
11:17 AM,39.2,35.6,87,30.23,10.0,NNE,8.1,-,N/A,,Overcast,30,2011-12-05 16:17:00
11:51 AM,53.6,8.6,16,30.22,10.0,NNW,17.3,28.8,N/A,,Clear,340,2011-12-05 16:51:00
11:54 AM,41.0,35.1,79,30.25,10.0,NNE,6.9,-,N/A,,Overcast,30,2011-12-05 16:54:00
12:43 PM,42.8,35.6,76,30.21,10.0,NE,8.1,-,N/A,,Overcast,40,2011-12-05 17:43:00
12:54 PM,42.1,35.1,76,30.23,10.0,NNE,8.1,-,N/A,,Overcast,20,2011-12-05 17:54:00
1:54 PM,41.0,33.1,73,30.22,10.0,NNE,10.4,-,N/A,,Overcast,30,2011-12-05 18:54:00
2:54 PM,41.0,30.9,67,30.20,10.0,NNE,11.5,-,N/A,,Overcast,30,2011-12-05 19:54:00
3:54 PM,39.9,30.9,70,30.21,10.0,NNE,9.2,-,N/A,,Overcast,20,2011-12-05 20:54:00
4:54 PM,39.0,28.9,67,30.22,10.0,NNE,10.4,-,N/A,,Overcast,20,2011-12-05 21:54:00
5:54 PM,37.9,28.9,70,30.25,10.0,NNE,11.5,-,N/A,,Scattered Clouds,20,2011-12-05 22:54:00
6:54 PM,37.9,28.9,70,30.27,10.0,NNE,13.8,-,N/A,,Overcast,30,2011-12-05 23:54:00
7:54 PM,37.0,28.9,73,30.27,10.0,NE,6.9,-,N/A,,Overcast,40,2011-12-06 00:54:00
8:21 PM,37.4,28.4,70,30.26,10.0,NNE,9.2,-,N/A,,Overcast,30,2011-12-06 01:21:00
8:54 PM,36.0,28.9,76,30.27,10.0,NNE,8.1,17.3,N/A,,Mostly Cloudy,30,2011-12-06 01:54:00
9:54 PM,36.0,27.0,70,30.28,10.0,NNE,8.1,-,N/A,,Overcast,30,2011-12-06 02:54:00
10:54 PM,36.0,27.0,70,30.27,10.0,NNE,10.4,-,N/A,,Overcast,20,2011-12-06 03:54:00
11:54 PM,35.1,27.0,72,30.28,10.0,NNE,11.5,-,N/A,,Overcast,20,2011-12-06 04:54:00